This is the latest recevied weather packets stored in our database for station/object IW2NTF-3. If no packets are shown the sender has not sent any weather packets the latest 10 day(s).
| Time | Temp. | Humidity | Pressure | Rain* | Wind** | Luminosity | Snow |
|---|---|---|---|---|---|---|---|
| 1777450863 | 20° C | 62% | 1017.2 hPa | 0 mm | - | 466 W/m² | - |
| 1777450804 | 20° C | 61% | 1017.2 hPa | 0 mm | - | 330 W/m² | - |
| 1777450744 | 20° C | 62% | 1017.3 hPa | 0 mm | - | 404 W/m² | - |
| 1777450683 | 20° C | 62% | 1017.3 hPa | 0 mm | - | 599 W/m² | - |
| 1777450624 | 20° C | 62% | 1017.1 hPa | 0 mm | - | 599 W/m² | - |
| 1777450564 | 20° C | 63% | 1017.1 hPa | 0 mm | - | 642 W/m² | - |
| 1777450503 | 20° C | 63% | 1017.1 hPa | 0 mm | - | 619 W/m² | - |
| 1777450443 | 20° C | 63% | 1017.2 hPa | 0 mm | - | 613 W/m² | - |
| 1777450384 | 20° C | 64% | 1017.2 hPa | 0 mm | - | 612 W/m² | - |
| 1777450323 | 20° C | 64% | 1017.2 hPa | 0 mm | - | 615 W/m² | - |
| 1777450263 | 20° C | 65% | 1017.3 hPa | 0 mm | - | 619 W/m² | - |
| 1777450203 | 20° C | 66% | 1017.3 hPa | 0 mm | - | 622 W/m² | - |
| 1777450143 | 19.44° C | 66% | 1017.2 hPa | 0 mm | - | 628 W/m² | - |
| 1777450083 | 19.44° C | 66% | 1017.1 hPa | 0 mm | - | 628 W/m² | - |
| 1777450023 | 19.44° C | 65% | 1017.1 hPa | 0 mm | - | 629 W/m² | - |
| 1777449963 | 19.44° C | 66% | 1017.2 hPa | 0 mm | - | 631 W/m² | - |
| 1777449903 | 19.44° C | 66% | 1017.2 hPa | 0 mm | - | 360 W/m² | - |
| 1777449843 | 19.44° C | 66% | 1017.1 hPa | 0 mm | - | 360 W/m² | - |
| 1777449783 | 18.89° C | 66% | 1017.1 hPa | 0 mm | - | 269 W/m² | - |
| 1777449723 | 18.89° C | 66% | 1017.1 hPa | 0 mm | - | 345 W/m² | - |
| 1777449663 | 18.89° C | 66% | 1017.2 hPa | 0 mm | - | 345 W/m² | - |
| 1777449604 | 18.89° C | 66% | 1017.2 hPa | 0 mm | - | 345 W/m² | - |
| 1777449543 | 18.89° C | 66% | 1017.2 hPa | 0 mm | - | 557 W/m² | - |
| 1777449483 | 18.89° C | 66% | 1017.1 hPa | 0 mm | - | 557 W/m² | - |
| 1777449423 | 18.89° C | 67% | 1017.1 hPa | 0 mm | - | 657 W/m² | - |
* Rain latest hour (hover to see other rain measurements)
** Current wind speed in m/s (hover to see current wind gust speed)